Regional Weather Roundup
Issued by NWS

Home | Current Version | Previous Version | Text Only | Print | Product List | Glossary Off
Versions: 1 2 3 4 5 6 7 8 9 10 11 12 13 14 15 16 17 18 19 20 21 22 23 24 25 26 27 28 29 30 31 32 33 34 35 36 37 38 39 40 41 42 43 44 45 46 47 48 49 50

000
ASUS43 KLMK 050502
RWRKY
KENTUCKY REGIONAL WEATHER ROUNDUP
NATIONAL WEATHER SERVICE LOUISVILLE KY
100 AM EDT THU MAY 05 2016

NOTE "FAIR" INDICATES FEW OR NO CLOUDS BELOW 12,000 FEET
WITH NO SIGNIFICANT WEATHER AND/OR OBSTRUCTIONS TO VISIBILITY.

KYZ001>023-026-027-061>063-070>075-050600-
WESTERN AND SOUTH CENTRAL KENTUCKY

CITY           SKY/WX    TMP DP  RH WIND       PRES   REMARKS
PADUCAH        MOCLDY    49  42  77 SW5       29.87F
HENDERSON      MOCLDY    52  43  71 CALM      29.84F
OWENSBORO      CLOUDY    52  44  74 CALM      29.85F
HOPKINSVILLE   CLEAR     51  42  71 NW5       29.86S
BOWLING GREEN  PTCLDY    51  42  71 NW6       29.85S
GLASGOW        NOT AVBL
$$

KYZ024-025-028>034-038-045-046-053-050600-
NORTH CENTRAL KENTUCKY

CITY           SKY/WX    TMP DP  RH WIND       PRES   REMARKS
LOUISVILLE/SDF MOCLDY    49  40  71 W7        29.81S
LOUISVILLE/LOU MOCLDY    49  38  65 NW8       29.81F
FORT KNOX      PTCLDY    44  39  80 W6        29.80F
$$

KYZ035>037-039>044-047>052-055>060-089>105-050600-
NORTHEAST KENTUCKY

CITY           SKY/WX    TMP DP  RH WIND       PRES   REMARKS
LEXINGTON      PTCLDY    45  35  68 NW5       29.78F
COVINGTON      LGT RAIN  45  36  70 W6        29.75F
FRANKFORT      PTCLDY    46  37  71 CALM      29.78F
$$

KYZ054-064>069-076>088-106>120-050600-
SOUTHEAST KENTUCKY

CITY           SKY/WX    TMP DP  RH WIND       PRES   REMARKS
JACKSON        CLEAR     45  41  86 NW7       29.76R
LONDON         PTCLDY    45  43  93 NW3       29.78R
SOMERSET       NOT AVBL
MIDDLESBORO    NOT AVBL
MONTICELLO     CLOUDY    49  47  93 W14       29.82S
$$





USA.gov is the U.S. government's official web portal to all federal, state and local government web resources and services.